Location: Poughquag
(41.6090°N, 73.6820°W)
Time: 11:00:11
(UTC-05:00)

N. Korean satellite - Pass Details

Date: 21 January 2020
Orbit: 456 x 505 km, 97.2° (Epoch: 24 February)

Event Time Altitude Azimuth Distance (km) Brightness Sun altitude
Rises 05:35:15 0° 14° (NNE) 2,523 10.3 -18.7°
Reaches altitude 10° 05:37:18 10° 17° (NNE) 1,648 9.3 -18.3°
Maximum altitude 05:40:50 67° 101° (E) 525 6.9 -17.7°
Drops below altitude 10° 05:44:23 10° 184° (S) 1,663 9.4 -17.0°
Sets 05:46:28 0° 187° (S) 2,547 10.3 -16.6°
